Date String (YYYY-MM-DD hh:mm:ss) UTC,Instrument flags,Ambient pressure (hPa),Sample flow (lpm),Bypass flow (lpm),Sample temperature (°C),Ambient temperature (°C),ASC tube jacket temperature (°C),LED temperature (°C),Box temperature (°C),Sample RH (%),Span deviation,Mass concentration (μg/m³),Mass concentration (μg/m³),Mass concentration (μg/m³)
DateTimeUTC,F1_M11,P_M11,Q1_M11,Q2_M11,T1_M11,T2_M11,T3_M11,T4_M11,T5_M11,U1_M11,ZSPAN_M11,X0_M11,X2_M11,X1_M11
2022-04-10 23:00:00,,0816.7,4.99,0.00,23.4,22.7,00.0,32.3,25.2,04.7,0000.0,0011.23,0004.29,0002.76
2022-04-10 23:01:00,,0816.7,5.00,0.00,23.4,22.6,00.0,32.3,25.2,04.6,0000.0,0010.77,0004.32,0002.73
2022-04-10 23:02:00,,0816.6,5.02,0.00,23.4,22.6,00.0,32.3,25.1,04.8,0000.0,0010.79,0004.36,0002.72
2022-04-10 23:03:00,,0816.6,5.00,0.00,23.4,22.6,00.0,32.3,25.2,04.9,0000.0,0010.87,0004.36,0002.71
2022-04-10 23:04:00,,0816.6,5.00,0.00,23.4,22.6,00.0,32.3,25.1,05.0,0000.0,0010.20,0004.31,0002.70
2022-04-10 23:05:00,,0816.7,4.98,0.00,23.4,22.6,00.0,32.3,25.2,04.9,0000.0,0009.99,0004.30,0002.70
2022-04-10 23:06:00,,0816.7,5.00,0.00,23.4,22.6,00.0,32.3,25.2,05.0,0000.0,0010.06,0004.33,0002.72
2022-04-10 23:07:00,,0816.5,5.00,0.00,23.4,22.6,00.0,32.3,25.2,04.9,0000.0,0009.99,0004.32,0002.72
2022-04-10 23:08:00,,0816.5,5.01,0.00,23.4,22.6,00.0,32.3,25.2,04.8,0000.0,0010.23,0004.35,0002.73
2022-04-10 23:09:00,,0816.5,5.00,0.00,23.4,22.6,00.0,32.3,25.2,05.0,0000.0,0010.12,0004.34,0002.73
2022-04-10 23:10:00,,0816.4,5.00,0.00,23.4,22.6,00.0,32.3,25.2,05.2,0000.0,0010.08,0004.34,0002.72
2022-04-10 23:11:00,,0816.4,4.99,0.00,23.4,22.6,00.0,32.3,25.2,04.9,0000.0,0009.86,0004.26,0002.70
2022-04-10 23:12:00,,0816.4,4.99,0.00,23.4,22.6,00.0,32.3,25.2,05.1,0000.0,0009.86,0004.29,0002.72
2022-04-10 23:13:00,,0816.5,5.00,0.00,23.4,22.6,00.0,32.3,25.3,04.9,0000.0,0009.80,0004.26,0002.73
2022-04-10 23:14:00,,0816.5,5.00,0.00,23.4,22.6,00.0,32.3,25.3,04.8,0000.0,0009.87,0004.29,0002.74
2022-04-10 23:15:00,,0816.5,5.00,0.00,23.4,22.6,00.0,32.3,25.3,05.0,0000.0,0010.42,0004.37,0002.77
2022-04-10 23:16:00,,0816.5,5.00,0.00,23.4,22.6,00.0,32.3,25.3,04.8,0000.0,0010.53,0004.39,0002.77
2022-04-10 23:17:00,,0816.5,5.00,0.00,23.4,22.6,00.0,32.3,25.2,04.9,0000.0,0010.40,0004.38,0002.74
2022-04-10 23:18:00,,0816.6,5.01,0.00,23.4,22.6,00.0,32.3,25.2,05.0,0000.0,0010.35,0004.39,0002.72
2022-04-10 23:19:00,,0816.5,4.99,0.00,23.4,22.6,00.0,32.3,25.3,05.0,0000.0,0010.39,0004.40,0002.71
2022-04-10 23:20:00,,0816.4,4.99,0.00,23.4,22.6,00.0,32.3,25.3,05.1,0000.0,0010.77,0004.45,0002.72
2022-04-10 23:21:00,,0816.4,4.99,0.00,23.4,22.6,00.0,32.3,25.2,04.8,0000.0,0011.01,0004.45,0002.72
2022-04-10 23:22:00,,0816.5,5.01,0.00,23.4,22.6,00.0,32.3,25.2,04.9,0000.0,0011.63,0004.53,0002.72
2022-04-10 23:23:00,,0816.5,4.99,0.00,23.4,22.6,00.0,32.3,25.2,05.0,0000.0,0012.08,0004.55,0002.71
2022-04-10 23:24:00,,0816.6,5.00,0.00,23.4,22.6,00.0,32.3,25.2,04.7,0000.0,0012.16,0004.58,0002.71
2022-04-10 23:25:00,,0816.5,5.00,0.00,23.4,22.5,00.0,32.3,25.2,04.8,0000.0,0011.98,0004.56,0002.71
2022-04-10 23:26:00,,0816.6,5.00,0.00,23.4,22.5,00.0,32.3,25.1,04.7,0000.0,0011.33,0004.47,0002.69
2022-04-10 23:27:00,,0816.6,5.02,0.00,23.4,22.5,00.0,32.3,25.1,04.8,0000.0,0011.82,0004.49,0002.70
2022-04-10 23:28:00,,0816.5,5.00,0.00,23.4,22.5,00.0,32.3,25.1,04.9,0000.0,0012.48,0004.48,0002.71
2022-04-10 23:29:00,,0816.5,5.00,0.00,23.4,22.6,00.0,32.3,25.1,04.8,0000.0,0012.36,0004.48,0002.73
2022-04-10 23:30:00,,0816.2,4.99,0.00,23.4,22.6,00.0,32.3,25.1,04.8,0000.0,0012.21,0004.49,0002.72
2022-04-10 23:31:00,,0816.3,4.99,0.00,23.4,22.5,00.0,32.3,25.2,04.8,0000.0,0011.92,0004.45,0002.72
2022-04-10 23:32:00,,0816.4,5.00,0.00,23.4,22.5,00.0,32.3,25.2,04.9,0000.0,0011.49,0004.44,0002.71
2022-04-10 23:33:00,,0816.5,5.01,0.00,23.4,22.5,00.0,32.3,25.2,04.8,0000.0,0011.09,0004.45,0002.72
2022-04-10 23:34:00,,0816.5,5.00,0.00,23.4,22.5,00.0,32.3,25.2,04.8,0000.0,0010.54,0004.40,0002.71
2022-04-10 23:35:00,,0816.5,4.99,0.00,23.4,22.5,00.0,32.3,25.2,04.8,0000.0,0010.43,0004.38,0002.71
2022-04-10 23:36:00,,0816.6,5.00,0.00,23.4,22.5,00.0,32.3,25.2,04.7,0000.0,0010.44,0004.37,0002.70
2022-04-10 23:37:00,,0816.6,5.00,0.00,23.4,22.5,00.0,32.3,25.2,04.9,0000.0,0011.24,0004.42,0002.72
2022-04-10 23:38:00,,0816.6,5.01,0.00,23.4,22.5,00.0,32.3,25.2,05.1,0000.0,0011.43,0004.44,0002.72
2022-04-10 23:39:00,,0816.6,5.01,0.00,23.4,22.5,00.0,32.3,25.2,05.0,0000.0,0010.73,0004.39,0002.70
2022-04-10 23:40:00,,0816.5,5.00,0.00,23.4,22.5,00.0,32.3,25.2,04.9,0000.0,0010.78,0004.40,0002.70
2022-04-10 23:41:00,,0816.5,5.00,0.00,23.4,22.5,00.0,32.3,25.2,04.7,0000.0,0010.68,0004.36,0002.69
2022-04-10 23:42:00,,0816.7,5.00,0.00,23.4,22.5,00.0,32.3,25.2,04.8,0000.0,0010.82,0004.34,0002.67
2022-04-10 23:43:00,,0816.5,5.00,0.00,23.4,22.6,00.0,32.3,25.1,04.8,0000.0,0010.93,0004.33,0002.67
2022-04-10 23:44:00,,0816.5,5.00,0.00,23.4,22.5,00.0,32.3,25.2,05.1,0000.0,0010.86,0004.26,0002.65
2022-04-10 23:45:00,,0816.5,5.00,0.00,23.3,22.5,00.0,32.3,25.1,05.0,0000.0,0011.03,0004.30,0002.64
2022-04-10 23:46:00,,0816.5,5.00,0.00,23.3,22.5,00.0,32.3,25.1,04.9,0000.0,0011.54,0004.30,0002.63
2022-04-10 23:47:00,,0816.6,5.01,0.00,23.3,22.5,00.0,32.3,25.1,04.8,0000.0,0011.56,0004.26,0002.60
2022-04-10 23:48:00,,0816.7,5.00,0.00,23.3,22.5,00.0,32.3,25.2,05.0,0000.0,0011.97,0004.27,0002.58
2022-04-10 23:49:00,,0816.6,5.00,0.00,23.3,22.5,00.0,32.3,25.1,05.0,0000.0,0010.94,0004.21,0002.57
2022-04-10 23:50:00,,0816.5,5.00,0.00,23.3,22.5,00.0,32.3,25.1,04.6,0000.0,0010.72,0004.23,0002.58
2022-04-10 23:51:00,,0816.4,5.00,0.00,23.3,22.5,00.0,32.3,25.1,04.8,0000.0,0010.72,0004.24,0002.60
2022-04-10 23:52:00,,0816.6,5.02,0.00,23.3,22.5,00.0,32.3,25.1,04.8,0000.0,0010.88,0004.28,0002.60
2022-04-10 23:53:00,,0816.6,4.99,0.00,23.3,22.5,00.0,32.3,25.1,04.5,0000.0,0010.80,0004.29,0002.62
2022-04-10 23:54:00,,0816.6,5.01,0.00,23.3,22.5,00.0,32.3,25.2,04.8,0000.0,0010.78,0004.31,0002.63
2022-04-10 23:55:00,,0816.7,5.00,0.00,23.3,22.5,00.0,32.3,25.1,05.0,0000.0,0010.85,0004.37,0002.66
2022-04-10 23:56:00,,0816.5,5.01,0.00,23.3,22.5,00.0,32.3,25.1,04.9,0000.0,0011.16,0004.37,0002.68
2022-04-10 23:57:00,,0816.5,4.99,0.00,23.3,22.5,00.0,32.3,25.1,04.7,0000.0,0010.73,0004.37,0002.70
2022-04-10 23:58:00,,0816.6,5.00,0.00,23.3,22.5,00.0,32.3,25.1,04.7,0000.0,0010.88,0004.42,0002.73
2022-04-10 23:59:00,,0816.6,5.00,0.00,23.3,22.5,00.0,32.3,25.1,04.8,0000.0,0010.74,0004.45,0002.73
